Retour au catalogue

COSMOS 1408 DEB

ActifPO
NORAD 50058·DEBRIS·🇷🇺 Russia

Lancé Sep 16, 1982 depuis Plesetsk Cosmodrome

Loading…

Prochains Passages (prochaines 24 heures)

TLE

FraisSource: Space-Track

Époque: Sep 13, 2026, 15:56 UTC

1 50058U 82092SW  26256.66411543  .00132618  54660-5  32115-3 0  9992
2 50058  82.6030 135.8286 0008988 124.5652 235.6473 15.96180244271370

Suivez COSMOS 1408 DEB en temps réel avec AllMySat

Download on the App Store